Location: Newark
(25.6108°S, 54.5803°W)
Time: 21:40:42
(UTC+00:00)

Courier 1B - Pass Details

Date: 03 November 2020
Orbit: 962 x 1209 km, 28.3° (Epoch: 24 November)

Event Time Altitude Azimuth Distance (km) Brightness Sun altitude
Rises 20:42:59 0° 330° (NNW) 3,665 10.8 15.2°
Reaches altitude 10° 20:46:20 10° 346° (NNW) 2,751 10.0 14.4°
Maximum altitude 20:51:03 20° 32° (NNE) 2,150 9.0 13.4°
Drops below altitude 10° 20:55:57 10° 77° (ENE) 2,877 9.4 12.3°
Sets 20:59:31 0° 92° (E) 3,885 10.0 11.5°
